Regional Weather Roundup
Issued by NWS State College, PA

Home | Current Version | Previous Version | Graphics & Text | Print | Product List | Glossary Off
Versions: 1 2 3 4 5 6 7 8 9 10 11 12 13 14 15 16 17 18 19 20 21 22 23 24 25 26 27 28 29 30 31 32 33 34 35 36 37 38 39 40 41 42 43 44 45 46 47 48 49 50

000
ASUS41 KCTP 192203
RWRCTP

REGIONAL WEATHER ROUNDUP
NATIONAL WEATHER SERVICE STATE COLLEGE PA
600 PM EDT SAT APR 19 2014

Note: "fair" indicates few or no clouds below 12,000 feet with no
significant weather and/or obstructions to visibility.

* = STATION THAT DOES NOT REPORT PRECIPITATION /E.G. RAIN...SNOW...ETC/
    THUNDER OR FOG.

PAZ002>004-007>009-013>016-020>023-029>032-192300-
WESTERN PENNSYLVANIA

CITY           SKY/WX    TMP DP  RH WIND       PRES   REMARKS
ERIE           SUNNY     47  27  45 NE13      30.37F
MEADVILLE      SUNNY     55  30  38 N10       30.30F
FRANKLIN*      SUNNY     61  21  21 E8        30.30F
NEW CASTLE     FAIR      61  24  24 NW7       30.30F
BEAVER COUNTY  SUNNY     61  23  23 CALM      30.28F
BUTLER*        PTSUNNY   61  21  21 N3        30.29F
PITTSBURGH INT PTSUNNY   63  17  17 NE10      30.27S
PITTSBURGH     CLOUDY    64  19  17 N5        30.27R
INDIANA*       CLOUDY    63  18  17 N6        30.27S
LATROBE        PTSUNNY   63  23  22 N9        30.28S
WASHINGTON CO* PTSUNNY   61  23  23 NE6       30.29S
$$

PAZ004>006-010>012-017>019-024>028-033>037-041-042-045-046-049>053-192300-
CENTRAL PENNSYLVANIA

CITY           SKY/WX    TMP DP  RH WIND       PRES   REMARKS
BRADFORD       SUNNY     55  25  31 NE10G18   30.30S
DUBOIS         PTSUNNY   62  18  18 N8        30.26F
CLEARFIELD     PTSUNNY   62  18  18 NE8       30.27S
JOHNSTOWN      CLOUDY    57  18  21 NE7       30.26R
ALTOONA        PTSUNNY   61  24  24 E9        30.27R
STATE COLLEGE  SUNNY     63  25  23 E9        30.27S
WILLIAMSPORT   PTSUNNY   59  19  21 NE14      30.30R
SELINSGROVE    PTSUNNY   62  24  23 NE16      30.29R
FT INDIANTOWN  NOT AVBL
CAPITAL CITY   MOSUNNY   64  24  21 N7        30.27R
HARRISBURG     PTSUNNY   65  23  20 N9        30.26R
YORK           PTSUNNY   62  26  25 NW5       30.27R
$$

PAZ038>040-043-044-047-048-054-055-060>062-067>071-192300-
EASTERN PENNSYLVANIA

CITY           SKY/WX    TMP DP  RH WIND       PRES   REMARKS
SCRANTON       MOSUNNY   58  21  24 N10G24    30.29R
MOUNT POCONO   SUNNY     55  20  25 N12       30.27R
ALLENTOWN      SUNNY     64  22  20 N9        30.26R
QUAKERTOWN*    PTCLDY    64  27  24 NW8       30.26R
READING        MOSUNNY   64  21  19 N12       30.26R
LANCASTER      MOSUNNY   63  26  24 NE9       30.26R
COATESVILLE    PTCLDY    63  23  22 NE5       30.27R
POTTSTOWN      MOSUNNY   63  24  22 N10       30.27R
BLUE BELL      PTSUNNY   64  19  17 N3        30.24S
DOYLESTOWN     MOSUNNY   64  22  20 N8        30.25R
WILLOW GROVE   NOT AVBL
NORTH PHILA    PTSUNNY   66  22  18 N10       30.26R
PHILADELPHIA   CLOUDY    66  21  18 VRB5      30.26R
$$



USA.gov is the U.S. government's official web portal to all federal, state and local government web resources and services.